Retour au catalogue

NOAA 16 DEB

ActifPO
NORAD 41661·DEBRIS·🇺🇸 United States

Lancé Sep 21, 2000 depuis Vandenberg Space Force Base

Loading…

Prochains Passages (prochaines 24 heures)

TLE

FraisSource: Space-Track

Époque: Sep 14, 2026, 08:20 UTC

1 41661U 00055PA  26257.34786611  .00003223  00000-0  92674-3 0  9997
2 41661  99.0274 103.8239 0020285 341.2179  18.8260 14.45442349540601

Suivez NOAA 16 DEB en temps réel avec AllMySat

Download on the App Store